Find Starlink 11207

NORAD ID: 60933 Int'l Des: 2024-155 Owner: SPXS Country: US Constellation: starlink operational
LEOCIRCULAR

現在のビュー

3D地球を読み込み中...

About Starlink 11207

Starlink 11207 (NORAD 60933) is a starlink constellation satellite (v2 mini d2c) launched Aug 31, 2024 by SPXS of US. It operates in LEO, CIRCULAR orbit with a mass of 960.00 kg.

Starlink 11207について

説明を読み込み中...

次回通過

Passes for default location (London). Set your location on the main map for personalized predictions.

高度履歴

Loading altitude history...

軌道要素

1 60933U 24155K 26166.98034548 -.00011742 00000-0 -91970-4 0 9997
2 60933 53.1587 216.4518 0001202 76.6163 283.4989 15.69767563103847
Epoch: Jun 15, 2026 • Age: 7 hours

現在のステータス

高度 359.9 km
速度 7.70 km/s
衛星直下点 7.04°N, 29.74°E
打ち上げ日 Aug 31, 2024
運用期間 1.7 years
タイプ internet

技術仕様

分類 Payload
質量 960.00 kg
乾燥質量 910.00 kg
総質量 960.00 kg
長さ 0.30 m
直径 4.10 m
スパン 29.00 m
形状 Box + pan
製造者 SPXS
バスタイプ Starlink V2MD
フェーズステータス In Orbit
所有者/国 SPXS/US

Most Searched